This demonstration page uses our WeatherBlox Daily Observations layout. Learn more.

Left ArrowRight Arrow

39.01783, -85.05884

Hourly Observations for October 17, 2020

Temp ( °F °C ) Dew Point ( °F °C ) Humidity (%) Winds ( mph kmh ) Pressure ( in mb ) Visibility ( mi km ) Precip ( " mm )
12:52 am 00:52 Clear 41 5 25 -3.9 53 53 SSW 7 11 30.23 1024 10 16.0934 0 0
1:52 am 01:52 Clear 40 4.4 25 -3.9 55 55 SSW 7 11 30.24 1024 10 16.0934 0 0
2:52 am 02:52 Clear 39 3.9 26 -3.3 60 60 SSW 8 13 30.25 1025 10 16.0934 0 0
3:52 am 03:52 Mostly Clear 38 3.3 26 -3.3 62 62 SSW 7 11 30.27 1025 10 16.0934 0 0
4:52 am 04:52 Mostly Clear 35 1.7 27 -2.8 72 72 S 3 6 30.28 1025 10 16.0934 0 0
5:52 am 05:52 Clear 36 2.2 27 -2.8 70 70 SSW 5 7 30.3 1026 10 16.0934 0 0
6:52 am 06:52 Clear 35 1.7 27 -2.8 72 72 SSE 5 7 30.3 1026 10 16.0934 0 0
7:52 am 07:52 Partly Cloudy 35 1.7 28 -2.2 76 76 Calm 30.31 1026 10 16.0934 0 0
8:52 am 08:52 Mostly Sunny 36 2.2 30 -1.1 79 79 SSW 3 6 30.33 1027 10 16.0934 0 0
9:52 am 09:52 Partly Cloudy 46 7.8 33 0.6 61 61 S 5 7 30.34 1027 10 16.0934 0 0
10:52 am 10:52 Partly Cloudy 52 11.1 32 0 47 47 SE 3 6 30.34 1027 10 16.0934 0 0
11:52 am 11:52 Mostly Sunny 57 13.9 27 -2.8 32 32 SW 10 17 30.35 1028 10 16.0934 0 0
12:52 pm 12:52 Mostly Sunny 60 15.6 25 -3.9 26 26 S 9 15 30.33 1027 10 16.0934 0 0
1:52 pm 13:52 Mostly Sunny 60 15.6 23 -5 24 24 SSW 9 15 30.29 1026 10 16.0934 0 0
2:52 pm 14:52 Mostly Cloudy 63 17.2 24 -4.4 23 23 SSW 9 15 30.26 1025 10 16.0934 0 0
3:52 pm 15:52 Mostly Cloudy 62 16.7 23 -5 22 22 S 7 11 30.24 1024 10 16.0934 0 0
4:52 pm 16:52 Mostly Cloudy 61 16.1 23 -5 23 23 S 10 17 30.23 1024 10 16.0934 0 0
5:52 pm 17:52 Mostly Cloudy 60 15.6 23 -5 24 24 S 10 17 30.22 1023 10 16.0934 0 0
6:52 pm 18:52 Mostly Cloudy 54 12.2 26 -3.3 34 34 SE 9 15 30.21 1023 10 16.0934 0 0
7:52 pm 19:52 Partly Cloudy 54 12.2 27 -2.8 35 35 SSE 12 19 30.2 1023 10 16.0934 0 0
8:52 pm 20:52 Mostly Clear 52 11.1 27 -2.8 38 38 SSE 12 19 30.2 1023 10 16.0934 0 0
9:52 pm 21:52 Partly Cloudy 51 10.6 27 -2.8 39 39 SSE 14 22 30.18 1022 10 16.0934 0 0
10:52 pm 22:52 Mostly Clear 49 9.4 28 -2.2 44 44 S 9 15 30.19 1022 10 16.0934 0 0
11:52 pm 23:52 Mostly Clear 48 8.9 29 -1.7 48 48 SSE 14 22 30.18 1022 10 16.0934 0 0

Powered by AerisWeather